星链-32920 (STARLINK-32920)

导读

STARLINK-32920是美国SpaceX公司于2025年2月8日发射的星链低轨通信卫星,属于星链星座全球覆盖阶段部署的卫星之一,延续了V2 Mini版本技术方案,支持手机直连服务。星链计划旨在为全球提供低延迟宽带互联网服务,截至2025年9月已发射超9400颗卫星,该卫星将补充星座容量,助力星链进一步实现全球无缝覆盖。

基本信息
目录编号:
62925
目录名称:
STARLINK-32920
国际标识:
2025-027U
轨道中心:
EARTH
卫星名称:
星链-32920
卫星全名:
星链-32920 (STARLINK-32920)
卫星状态:
在轨 (已飞行574 天)
发射日期:
2025-02-08 UTC
国别 :
美国 (US)
星等 :
--
轨道信息
数据来源 国际轨道数据 AOE轨道数据
星历时间 2026-09-05T12:20:02+0800
6小时前
查看轨道信息
2026-08-30T00:00:00+0800
6天前
查看轨道信息
半长轴 6861.184km 6861.207km
偏心率 0.000099 0.0001324
轨道倾角 43.006° 43.001°
近地点辐角 315.812° 305.231°
升交点赤经 195.150° 231.941°
平近点角 44.265° 191.028°
近地点 482.367km 482.161km
远地点 483.727km 483.979km
周期 94.267分钟 94.267分钟
每日圈数 15.275808 15.275733
详细信息
固有亮度:
5
最大亮度:
2.5
卫星平台:
Starlink V1.0
覆盖范围:
全球
运营商:
太空探索技术公司
运营商所在国:
美国
制造商(研发单位):
太空探索技术公司
制造商所在国:
美国
使用方式:
暂无
卫星简介
Starlink 计划是 SpaceX 推出的全球卫星互联网项目,通过发射低轨道卫星,为全球尤其是偏远地区提供高速、低延迟的互联网服务。自 2019 年起,Starlink 已部署数千颗卫星,旨在缩小全球数字鸿沟,推动互联网普及。该项目还为军事、航空等行业提供通信支持,带来广泛经济效益。
2D轨道图
3D轨道图
轨道高度分析图
轨道倾角分析图
轨道综合分析图
查看轨道综合分析图
交会数据列表
事件ID 空间交会对象 最接近时刻(TCA) 交会距离 交会风险概率(CRP) 交会风险指数(CRI) 操作
CDM_260907-163805-670706-292521
2026-09-07T
16:38:15+0000
0.482 km
远距离
1.751342E-4 高风险 0.8
CDM_260907-163905-670606-292521
2026-09-07T
16:39:58+0000
1.017 km
极远距离
1.959868E-5 中风险 0.61
CDM_260906-122505-823206-292521
2026-09-06T
12:25:51+0000
1.303 km
极远距离
8.327885E-6 低风险 0.53
CDM_260907-150505-670606-292521
2026-09-07T
15:05:48+0000
1.590 km
极远距离
4.306113E-6 低风险 0.48
CDM_260906-202403-331806-292522
2026-09-06T
20:24:16+0000
1.518 km
极远距离
3.949345E-6 低风险 0.47
CDM_260907-181205-670706-292521
2026-09-07T
18:12:24+0000
2.026 km
极远距离
2.14632E-6 低风险 0.42
CDM_260907-201205-688906-292521
2026-09-07T
20:12:20+0000
1.768 km
极远距离
1.721957E-6 低风险 0.4
CDM_260906-210305-823206-292521
2026-09-06T
21:03:43+0000
2.319 km
极远距离
1.61979E-6 低风险 0.39
CDM_260906-192905-823206-292521
2026-09-06T
19:29:34+0000
2.831 km
极远距离
1.16313E-6 低风险 0.36
CDM_260907-150405-670706-292521
2026-09-07T
15:04:05+0000
2.827 km
极远距离
1.143955E-6 低风险 0.36